Volver al catálogo

STARLINK-37339

ActivoComunicacionesSSO
NORAD 68735·PAYLOAD·🇺🇸 United States

Lanzado Apr 15, 2026 desde Vandenberg Space Force Base

Loading…

Próximos Pases (próximas 24 horas)

TLE

ActualizadoSource: CelesTrak SupGP

Época: Sep 15, 2026, 03:00 UTC

1 68735C 26082H   26258.12548611  .00011251  00000+0  34925-3 0  2581
2 68735  97.2848 120.4066 0001694  87.8453 337.5841 15.33433257    11

Sigue STARLINK-37339 en tiempo real con AllMySat

Download on the App Store